Torna al catalogo

CZ-6A DEB

AttivoPO
NORAD 60861·DEBRIS·🇨🇳 China

Lanciato Aug 6, 2024 da Taiyuan Satellite Launch Center

Loading…

Prossimi Passaggi (prossime 24 ore)

TLE

AggiornatoSource: Space-Track

Epoca: Sep 14, 2026, 10:32 UTC

1 60861U 24140JQ  26257.43924466  .00076033  00000-0  18855-2 0  9990
2 60861  89.0538 260.2483 0052084 102.0023 258.7078 15.38673555113918

Traccia CZ-6A DEB in tempo reale con AllMySat

Download on the App Store